Location: Bathurst
(33.4193°S, 149.5775°E)
Time: 00:51:49
(UTC+10:00)

A-11 Canister half - Pass Details

Date: 21 June 2021
Orbit: 1513 x 1687 km, 47.2° (Epoch: 28 July)

Event Time Altitude Azimuth Distance (km) Brightness Sun altitude
Rises 19:46:50 0° 244° (WSW) 4,750 12.3 -33.5°
Reaches altitude 10° 19:50:13 10° 235° (SW) 3,791 11.5 -34.2°
Enters shadow 19:58:29 38° 177° (S) 2,299 9.7 -36.0°
